COSMOS 2251 DEB, 34590

Orbit data source: Space-Track

COSMOS 2251 DEB, 34590 is space debris in LEO originally from a launch on Wed, 16 Jun 1993 UTC launched from the Plesetsk Missile And Space Complex (PKMTR). The debris from Iridium 33, an American commercial communications satellite, has been tracked extensively since its accidental collision with the defunct Russian satellite Cosmos 2251 in 2009. This event, occurring at high speed in low Earth orbit (LEO), generated thousands of pieces of space debris, significantly increasing the risk of further collisions. The Iridium 33 debris cloud has impacted space traffic management and orbital debris mitigation strategies, making it a subject of ongoing study in space situational awareness.

Loading next visibility...
Identifier
34590, 1993-036WC
Orbit
LEO
Country
Flag of CISCIS
Related business
Manufacturer
Unknown
Mission
Spacecraft
Bus & Motor
Unknown
Mass
Unknown
Launch date (UTC)
1993-06-16 (33 years ago)
Launch vehicle
Unknown
Launch site
Plesetsk Missile And Space Complex (PKMTR)
Object type
Payload
Rocket body
Debris
Shape & HBR
Unknown shape, 0.1 m
Radar Cross Section
Small (<0.1 m²)

Expand to show TLE details & history
Last TLE update: 15 hours ago

TLE from 15 hours ago
0 COSMOS 2251 DEB
1 34590U 93036WC  26037.87907609  .00000651  00000-0  15365-3 0  9991
2 34590  74.0416 216.3456 0069854 330.8800  96.7988 14.54912389899375
Epoch: 2026-02-06T21:05Z
TLE epoch observation values (Epoch: 2026-02-06T21:05:52.174Z)
Latitude
63.53249°
Longitude
157.70746°
Altitude
726.428 km
Speed
7.495 km/s
True Right ascension
16h 44m 44s
True Declination
63° 23' 40"
Sunlit
Object was in daylight at epoch
Visualization orbit readout
Latitude
Unknown
Longitude
Unknown
Altitude
Unknown
Speed
Unknown
Apparent Right ascension
Unknown
Apparent Declination
Unknown
Sunlit
N/A
Visualization observer readout
Local Sidereal Time
13:59:03
Azimuth
Unknown
Elevation
Unknown
Doppler factor
Unknown
Orbital elements
Apogee altitude
756.746 km
Perigee altitude
657.757 km
Semi-major axis
7,085.389 km
Eccentricity
0.00699
Inclination
74.0416°
RAAN
216.3456°
Arg. of periapsis
330.88°
True anomaly
97.59279°
Mean anomaly
96.7988°
Eccentric anomaly
97.19588°
Mean motion
3.63913 °/min
Orbital period
98.92 mins
BSTAR
0.00015365
Loading maneuver chart data...
Computing Atmospheric mass density...

Documentation

Showing up to 5 results
|